CZ-6A DEB, 54311

Orbit data source: Space-Track

CZ-6A DEB, 54311 is space debris in SSO originally from a launch on Fri, 11 Nov 2022 UTC launched from the Taiyaun Space Center, China (TSC). Debris objects in space refer to the collection of defunct objects orbiting the Earth. Examples of debris include non-operational satellites, rocket bodies, and fragments generated from explosions, collisions, or faulty payload assembly.

Loading next visibility...
Identifier
54311, 2022-151BE
Orbit
SSO
Country
Flag of CNCN / PRC
Related business
Manufacturer
SAST
Mission
Spacecraft
Bus & Motor
Unknown
Mass
Unknown
Launch date (UTC)
2022-11-11 (4 years ago)
Launch vehicle
Unknown
Launch site
Taiyaun Space Center, China (TSC)
Object type
Payload
Rocket body
Debris
Shape & HBR
Unknown shape, 0.1 m
Radar Cross Section
Medium (>0.1 m² and <1 m²)

Expand to show TLE details & history
Last TLE update: 1 day ago

TLE from 1 day ago
0 CZ-6A DEB
1 54311U 22151BE  26236.18415360  .00018949  00000-0  21705-2 0  9990
2 54311  98.6168 317.0315 0055408  32.1477 328.3094 14.84873623200579
Epoch: 2026-08-24T04:25Z
TLE epoch observation values (Epoch: 2026-08-24T04:25:10.871Z)
Latitude
Longitude
-81.7333°
Altitude
584.076 km
Speed
7.586 km/s
True Right ascension
21h 08m 07s
True Declination
0° 00' 00"
Sunlit
Object was in full shadow at epoch
Visualization orbit readout
Latitude
Unknown
Longitude
Unknown
Altitude
Unknown
Speed
Unknown
Apparent Right ascension
Unknown
Apparent Declination
Unknown
Sunlit
N/A
Visualization observer readout
Local Sidereal Time
21:13:00
Azimuth
Unknown
Elevation
Unknown
Doppler factor
Unknown
Orbital elements
Apogee altitude
649.776 km
Perigee altitude
572.325 km
Semi-major axis
6,989.187 km
Eccentricity
0.00554
Inclination
98.6168°
RAAN
317.0315°
Arg. of periapsis
32.1477°
True anomaly
327.97388°
Mean anomaly
328.3094°
Eccentric anomaly
328.14184°
Mean motion
3.71452 °/min
Orbital period
96.92 mins
BSTAR
0.0021705
Loading maneuver chart data...
Computing Atmospheric mass density...
Loading historical data...
Loading historical data...
Loading historical data...
Loading historical data...
Loading historical data...
Loading historical data...
Loading historical data...

Documentation

Showing up to 5 results
|